User: anonymous   Login
Location: ??
(35.5052°N, 139.7262°E)
Time: 23:36:21
(UTC+00:00)
Language:

Cosmos 2369 Rocket - Orbit

View from above orbital plane
View from above orbital plane
View from above satellite
View from above satellite

Ground track
Ground track

The orbit data is extracted from the following two-line orbital elements,

1 26070U 00006B   21262.37451864 -.00000103  00000-0 -28255-4 0  9994
2 26070  71.0014 288.8777 0015275 153.6830 206.5072 14.15472261117557
Epoch (UTC): 19 September 2021 08:59:18
Eccentricity: 0.0015275
inclination: 71.0014°
perigee height: 829 km
apogee height: 852 km
right ascension of ascending node: 288.8777°
argument of perigee: 153.6830°
revolutions per day: 14.15472261
mean anomaly at epoch: 206.5072°
orbit number at epoch: 11755

The dashed part of the orbit path shows where the satellite is in the earth's shadow,  

DLR